Station: Hindmarsh Island  

  Atmospheric Gas Attenuation - ITU Rec 676-11   ----------------- dB/100km -----------------
Date Time Temp RH % AH g/m3 Dew Point Wind Direction Speed kph Gust kph Barometer mB Rainfall Since 9am 24GHz 47GHz 76GHz 122GHz 134GHz 241GHz
02/09 14:10 15.3 62 8.1 8.1 19 32 1014.5 0 18.5 24.7 37.2 97.4 90.2 310.0
02/09 14:00 15.3 61 7.97 7.8 24 30 1014.6 0 18.2 24.5 36.7 96.1 88.6 304.2
02/09 13:50 15.3 62 8.1 8.1 22 32 1014.7 0 18.5 24.7 37.2 97.4 90.2 310.0
02/09 13:40 15 61 7.82 7.5 13 15 1014.7 0 17.9 24.4 36.2 94.9 87.0 298.7
02/09 13:30 15.5 61 8.06 8 20 30 1014.9 0 18.4 24.6 36.9 96.8 89.5 307.5
02/09 13:20 14.7 68 8.56 8.9 17 22 1015.1 0 19.5 25.6 39.3 103.0 96.9 333.3
02/09 13:10 14.1 69 8.37 8.5 24 30 1015.1 0 19.1 25.5 38.8 101.8 95.2 327.2
02/09 13:00 14.8 65 8.23 8.3 20 26 1015.1 0 18.8 25.1 37.9 99.4 92.5 317.9
02/09 12:50 14.6 65 8.13 8.1 20 26 1015.2 0 18.5 25.0 37.6 98.7 91.5 314.3
02/09 12:40 14.2 62 7.57 7 24 28 1015.4 0 17.4 24.2 35.7 93.4 84.8 290.8
02/09 12:30 14.3 64 7.86 7.6 24 30 1015.5 0 18.0 24.7 36.7 96.2 88.4 303.4
02/09 12:20 14.3 61 7.49 6.9 26 32 1015.6 0 17.2 24.1 35.3 92.4 83.7 286.9
02/09 12:10 15.2 62 8.05 8 24 28 1015.8 0 18.3 24.7 37.1 97.1 89.8 308.5
02/09 12:00 14.7 65 8.18 8.2 22 28 1015.9 0 18.6 25.1 37.8 99.1 92.0 316.3
02/09 11:50 14.6 66 8.26 8.3 20 26 1016 0 18.8 25.2 38.2 100.1 93.2 320.3
02/09 11:40 15.1 63 8.13 8.1 17 24 1016.3 0 18.5 24.9 37.4 98.1 91.0 312.6
02/09 11:30 15.4 60 7.88 7.7 15 20 1016.4 0 18.0 24.4 36.3 95.2 87.4 300.3
02/09 11:20 14.7 61 7.68 7.3 17 22 1016.6 0 17.6 24.3 35.9 94.0 85.7 294.1
02/09 11:10 14.7 62 7.81 7.5 17 20 1016.8 0 17.9 24.5 36.4 95.4 87.4 300.0
02/09 11:00 14.5 62 7.71 7.3 17 22 1016.9 0 17.7 24.4 36.1 94.6 86.3 296.3
02/09 10:50 14.4 61 7.54 7 19 22 1017 0 17.3 24.2 35.5 93.0 84.3 289.1
02/09 10:40 14.8 61 7.73 7.4 17 26 1017 0 17.7 24.4 36.1 94.5 86.3 296.1
02/09 10:30 14.1 61 7.4 6.7 19 26 1017 0 17.0 24.1 35.1 91.9 82.8 284.0
02/09 10:20 13.9 61 7.31 6.5 20 28 1017.1 0 16.8 24.0 34.9 91.2 81.9 280.8
02/09 10:10 14.1 62 7.52 6.9 20 26 1017.2 0 17.3 24.2 35.6 93.1 84.4 289.4
02/09 10:00 13.8 61 7.27 6.4 20 28 1017.3 0 16.8 23.9 34.8 90.9 81.5 279.4
02/09 09:50 13.8 61 7.27 6.4 20 33 1017.3 0 16.8 23.9 34.8 90.9 81.5 279.4
02/09 09:40 13.9 63 7.55 7 19 26 1017.4 0 17.3 24.4 35.8 93.7 85.0 291.5
02/09 09:30 13.8 61 7.27 6.4 20 24 1017.4 0 16.8 23.9 34.8 90.9 81.6 279.4
02/09 09:20 13.5 63 7.37 6.6 17 24 1017.4 0 17.0 24.2 35.3 92.3 83.1 284.9
02/09 09:10 13.4 62 7.21 6.3 19 26 1017.4 0 16.6 24.0 34.7 90.8 81.2 278.2
02/09 09:00 13.4 62 7.21 6.3 20 26 1017.4 0 16.6 24.0 34.7 90.8 81.2 278.2
02/09 08:50 13.7 65 7.7 7.2 19 26 1017.5 0.6 17.7 24.6 36.5 95.5 87.1 299.0
02/09 08:40 13.8 67 7.98 7.8 17 20 1017.4 0.6 18.3 25.1 37.5 98.3 90.6 311.2
02/09 08:30 13.2 68 7.81 7.4 15 20 1017.3 0.6 17.9 24.9 37.1 97.2 89.1 305.8
02/09 08:20 12.9 69 7.78 7.4 17 22 1017.4 0.6 17.9 25.0 37.1 97.3 89.1 305.6
02/09 08:10 12.9 71 8 7.8 15 20 1017.4 0.6 18.3 25.3 38.0 99.6 91.9 315.7
02/09 08:00 12.8 77 8.63 8.9 13 17 1017.3 0.6 19.7 26.4 40.6 106.5 100.4 345.4
02/09 07:50 12 81 8.63 8.8 13 17 1017.3 0.6 19.7 26.6 41.0 107.6 101.5 348.9
02/09 07:40 11.7 83 8.68 8.9 11 17 1017.2 0.6 19.9 26.8 41.4 108.6 102.5 352.6
02/09 07:30 11.2 85 8.62 8.8 11 15 1017.2 0.6 19.8 26.9 41.4 108.6 102.4 352.0
02/09 07:20 10.9 87 8.66 8.8 11 13 1017.2 0.6 19.9 27.0 41.7 109.5 103.3 355.3
02/09 07:10 10.5 87 8.44 8.4 11 13 1017 0.6 19.4 26.8 41.0 107.6 100.8 346.4
02/09 07:00 10.4 88 8.48 8.5 11 13 1017.1 0.6 19.5 26.9 41.2 108.2 101.5 348.8
02/09 06:50 10.1 87 8.23 8 9 13 1016.9 0.6 19.0 26.5 40.3 105.8 98.4 338.0
02/09 06:40 10.2 87 8.28 8.1 9 11 1016.7 0.6 19.1 26.6 40.5 106.2 99.0 340.0
02/09 06:30 10.4 86 8.29 8.2 9 11 1016.7 0.6 19.1 26.5 40.4 106.0 98.9 339.6
02/09 06:20 10.6 86 8.4 8.4 11 13 1016.7 0.6 19.3 26.6 40.8 106.9 100.1 344.0
02/09 06:10 10.6 86 8.4 8.4 11 15 1016.7 0.6 19.3 26.6 40.8 106.9 100.1 344.0
02/09 06:00 10.8 86 8.5 8.6 15 17 1016.5 0.6 19.5 26.7 41.1 107.8 101.2 347.8
02/09 05:50 10.8 86 8.5 8.6 13 15 1016.5 0.6 19.5 26.7 41.1 107.8 101.2 347.8
02/09 05:40 10.8 86 8.5 8.6 13 15 1016.5 0.6 19.5 26.7 41.1 107.8 101.2 347.8
02/09 05:30 10.9 88 8.75 9 13 17 1016.4 0.6 20.1 27.1 42.1 110.4 104.5 359.4
02/09 05:20 10.8 89 8.8 9.1 13 17 1016.5 0.6 20.2 27.3 42.3 111.1 105.3 362.4
02/09 05:10 10.8 89 8.8 9.1 13 13 1016.3 0.6 20.2 27.2 42.3 111.1 105.3 362.3
02/09 05:00 10.9 89 8.85 9.2 11 13 1016.3 0.6 20.3 27.3 42.5 111.5 105.9 364.3
02/09 04:50 11 89 8.91 9.3 11 15 1016.3 0.6 20.4 27.4 42.7 112.1 106.6 366.7
02/09 04:40 11.1 89 8.97 9.4 11 17 1016.2 0.6 20.5 27.4 42.9 112.6 107.3 369.1
02/09 04:30 11.3 89 9.08 9.6 11 13 1016.1 0.6 20.7 27.6 43.2 113.5 108.5 373.5
02/09 04:20 11.7 88 9.21 9.8 11 15 1016.1 0.6 21.0 27.7 43.6 114.4 109.8 377.9
02/09 04:10 12 88 9.38 10.1 11 17 1016.1 0.6 21.3 27.8 44.1 115.9 111.7 384.7
02/09 04:00 12.3 88 9.56 10.4 15 19 1016.1 0.6 21.7 28.1 44.7 117.5 113.8 392.0
02/09 03:50 12.3 88 9.56 10.4 13 17 1016 0.6 21.7 28.1 44.7 117.5 113.8 392.0
02/09 03:40 12.5 88 9.68 10.6 17 22 1016 0.6 22.0 28.2 45.1 118.5 115.1 396.8
02/09 03:30 12.4 88 9.62 10.5 15 20 1016 0.6 21.8 28.1 44.9 118.0 114.4 394.4
02/09 03:20 12.5 88 9.68 10.6 17 24 1016 0.6 22.0 28.2 45.1 118.5 115.1 396.8
02/09 03:10 12.5 88 9.68 10.6 15 20 1016.1 0.6 22.0 28.2 45.1 118.5 115.1 396.9
02/09 03:00 12.5 88 9.68 10.6 13 19 1016.2 0.6 22.0 28.2 45.1 118.6 115.2 396.9
02/09 02:50 12.7 89 9.91 10.9 17 20 1016.2 0.6 22.5 28.5 46.0 120.9 118.1 407.2
02/09 02:40 12.8 88 9.86 10.9 13 19 1016.2 0.6 22.3 28.4 45.7 120.1 117.2 404.2
02/09 02:30 13.2 89 10.22 11.4 17 22 1016.3 0.6 23.1 28.9 47.0 123.6 121.7 419.8
02/09 02:20 13.2 88 10.1 11.3 15 22 1016.4 0.6 22.8 28.7 46.5 122.3 120.0 413.9
02/09 02:10 13.5 87 10.18 11.4 11 19 1016.4 0.6 23.0 28.7 46.7 122.7 120.7 416.2
02/09 02:00 13.5 87 10.18 11.4 13 20 1016.4 0.6 23.0 28.7 46.7 122.7 120.7 416.2
02/09 01:50 13.5 87 10.18 11.4 13 17 1016.5 0.6 23.0 28.8 46.7 122.7 120.7 416.3
02/09 01:40 13.4 87 10.11 11.3 11 17 1016.4 0.6 22.8 28.7 46.4 122.1 119.8 413.3
02/09 01:30 13.5 86 10.06 11.2 15 20 1016.4 0.6 22.7 28.5 46.2 121.4 119.0 410.4
02/09 01:20 13.6 87 10.24 11.5 15 17 1016.4 0.6 23.1 28.8 46.9 123.2 121.3 418.7
02/09 01:10 13.5 86 10.06 11.2 20 24 1016.3 0.6 22.7 28.5 46.1 121.3 119.0 410.3
02/09 01:00 13.5 85 9.94 11 20 24 1016.2 0.6 22.5 28.3 45.6 120.0 117.3 404.4
02/09 00:50 13.8 84 10.01 11.1 22 26 1016.2 0.6 22.6 28.3 45.8 120.3 117.8 406.3
02/09 00:40 13.7 83 9.83 10.9 20 24 1016.2 0.6 22.2 28.1 45.0 118.4 115.4 398.1
02/09 00:30 13.8 83 9.89 11 22 26 1016.2 0.6 22.3 28.1 45.2 118.9 116.1 400.4
02/09 00:20 13.6 84 9.89 11 20 24 1016.3 0.6 22.4 28.2 45.4 119.3 116.4 401.5
02/09 00:10 14 87 10.49 11.9 20 26 1016.3 0.6 23.6 29.1 47.7 125.5 124.2 428.7
02/09 00:00 13.9 87 10.43 11.8 20 26 1016.3 0.6 23.5 29.0 47.5 124.9 123.5 426.3
01/09 23:50 13.9 87 10.43 11.8 19 22 1016.4 0.6 23.5 29.0 47.5 124.9 123.5 426.4
01/09 23:40 14 87 10.49 11.9 20 24 1016.4 0.6 23.6 29.1 47.7 125.5 124.2 428.8
01/09 23:30 13.9 87 10.43 11.8 20 24 1016.4 0.6 23.5 29.0 47.5 124.9 123.5 426.4
01/09 23:20 14.1 88 10.68 12.1 20 26 1016.4 0.6 24.0 29.4 48.4 127.5 126.7 437.6
01/09 23:10 14 88 10.61 12 20 26 1016.4 0.6 23.9 29.3 48.2 126.8 125.9 434.7
01/09 23:00 13.8 88 10.49 11.8 19 24 1016.5 0.6 23.6 29.2 47.8 125.8 124.6 429.9
01/09 22:50 13.9 88 10.55 11.9 17 22 1016.5 0.6 23.8 29.3 48.0 126.3 125.2 432.3
01/09 22:40 14 88 10.61 12 19 24 1016.5 0.6 23.9 29.3 48.2 126.9 125.9 434.7
01/09 22:30 14 89 10.74 12.2 19 22 1016.5 0.6 24.2 29.6 48.8 128.4 127.8 441.2
01/09 22:20 14.3 90 11.06 12.7 17 20 1016.6 0.6 24.8 30.0 50.0 131.6 131.8 455.4
01/09 22:10 14.5 90 11.19 12.9 19 22 1016.6 0.6 25.1 30.2 50.4 132.8 133.4 460.8
01/09 22:00 14.6 90 11.26 13 17 24 1016.7 0.6 25.2 30.3 50.7 133.4 134.2 463.7
01/09 21:50 14.7 90 11.33 13.1 20 28 1016.7 0.6 25.4 30.4 50.9 134.1 135.0 466.6
01/09 21:40 14.8 89 11.27 13 22 28 1016.7 0.6 25.3 30.2 50.6 133.2 134.0 463.0

Last Refresh: 02-Sep-2026 14:16:46

Bureau of Meteorology